Weather in Kitzbuehel

Austria     47°29′55″N   12°23′08″E
temp.,
°C
wind,
m/s
gust,
m/s
humid.,
%
clouds,
%
prec.,
mm/h
press.,
hPa
HPBL,
m
13 may, thu
thu1323:00+4wnw1199100 0.4 1012149
02:00+4wnw1299100 1.6 1011272
05:00+4wnw1299100 1.2 1009265
08:00+4nw1298100 3.3 1009312
11:00+4w1298100 2.6 1009519
14:00+4wsw0197100 5.6 1009472
17:00+6nnw0192100 1.1 1008398
20:00+5wnw1297100 1.7 100898
14 may, fri
fri1423:00+4wnw1299100 2.9 1010138
02:00+4wsw1199100 6.4 1011195
05:00+4w119880 0.3 101055
08:00+5ssw119189 0.3 1010240
11:00+10nnw215460 0.1 10081386
14:00+11n225573 0.3 10071408
17:00+10n337497 0.8 1007870
20:00+7nne1192100 2.0 100932
15 may, sat
sat1523:00+6wsw1298100 4.1 101166
02:00+4sse1298100 11.2 1013161
05:00+3wsw1199100 2.8 1013212
08:00+4se119594 4.8 1014342
11:00+8se217230 0.0 1011765
14:00+12ese224691 0.0 10071660
17:00+11ne1158100 0.3 10051096
20:00+7nw2389100 0.8 100796
16 may, sun
sun1623:00+5nnw2399100 8.8 1011714
02:00+3nnw1198100 11.3 1014490
05:00+3sse1199100 1.4 1013348
08:00+4s129198 1.4 1013412
11:00+12nnw125484 0.1 10101425
14:00+14e124687 0.3 10081788
17:00+14se124564 0.1 10051715
20:00+9nnw2286100 0.6 100742
17 may, mon
mon1723:00+6n2499100 3.3 1010288
02:00+6ne1298100 5.1 1010141
05:00+4ese1298100 9.3 1010139
08:00+5wnw2395100 13.3 1013370
11:00+6nnw1672100 1.7 10131458
14:00+5sse2293100 2.8 1014484
17:00+7sw228181 0.7 1013575
20:00+5wsw129095 1.0 101491